Location: Fontevrault
(47.1823°N, 0.0493°E)
Time: 04:35:45
(UTC+00:00)

Meteor 1-21 Rocket - Pass Details

Date: 23 October 2021
Orbit: 834 x 907 km, 81.2° (Epoch: 07 December)

Event Time Altitude Azimuth Distance (km) Brightness Sun altitude
Rises 05:13:00 0° 134° (SE) 3,393 8.1 -13.7°
Reaches altitude 10° 05:16:38 10° 110° (ESE) 2,477 7.9 -13.1°
Maximum altitude 05:19:20 14° 81° (E) 2,229 7.7 -12.6°
Drops below altitude 10° 05:22:03 10° 52° (NE) 2,508 7.4 -12.1°
Sets 05:25:45 0° 28° (NNE) 3,468 7.7 -11.5°
